Regional Weather Roundup
Issued by NWS

Home | Current Version | Previous Version | Graphics & Text | Print | Product List | Glossary On
Versions: 1 2 3 4 5 6 7 8 9 10 11 12 13 14 15 16 17 18 19 20 21 22 23 24 25 26 27 28 29 30 31 32 33 34 35 36 37 38 39 40 41 42 43 44 45 46 47 48 49 50
000
ASUS44 KMEG 020610
RWRTN
TENNESSEE HOURLY STATE WEATHER ROUNDUP
NATIONAL WEATHER SERVICE MEMPHIS TN
100 AM CDT SUN AUG 02 2015

TNZ002-004-019-021-049-052-054-088>092-020700-
WEST TENNESSEE

CITY           SKY/WX    TMP DP  RH WIND       PRES   REMARKS
MEMPHIS INTL   CLEAR     81  67  62 CALM      29.96F
NWS MEMPHIS      N/A     73 N/A N/A MISG        N/A
JACKSON        CLEAR     71  67  87 CALM      29.98S
DYERSBURG        N/A    N/A N/A N/A MISG        N/A
PARIS          CLEAR     68  66  94 CALM      30.00S
LEXINGTON      CLEAR     72  72 100 CALM      29.98S
$$

TNZ008-025-027-028-033-062-065-066-020700-
NORTH MIDDLE TENNESSEE

CITY           SKY/WX    TMP DP  RH WIND       PRES   REMARKS
NASHVILLE      CLEAR     70  55  59 CALM      30.00S
CLARKSVILLE    CLEAR     66  64  93 CALM      29.99S
SMYRNA         CLEAR     66  62  87 CALM      30.00F
CROSSVILLE     CLEAR     65  60  84 CALM      30.05F
$$

TNZ061-075-076-078-094-096-097-020700-
SOUTH MIDDLE TENNESSEE

CITY           SKY/WX    TMP DP  RH WIND       PRES   REMARKS
FAYETTEVILLE   CLEAR     70  64  83 NE5       29.99F
TULLAHOMA      CLEAR     72  63  73 CALM      30.01F
WINCHESTER     CLEAR     64  64 100 CALM      30.00F
MCMINNVILLE    CLEAR     66  66 100 CALM      30.00F
COLUMBIA       CLEAR     72  72 100 CALM      29.98F
SHELBYVILLE    CLEAR     66  66 100 CALM      30.00F
$$

TNZ017-018-042-046-047-020700-
NORTHEAST TENNESSEE

CITY           SKY/WX    TMP DP  RH WIND       PRES   REMARKS
TRI CITIES     MOCLDY    63  60  90 CALM      30.02S
ELIZABETHTON   CLEAR     61  57  88 CALM      30.03S
$$

TNZ012-013-036-069-073-074-020700-
CENTRAL EAST TENNESSEE

CITY           SKY/WX    TMP DP  RH WIND       PRES   REMARKS
KNOXVILLE      MOCLDY    73  65  75 CALM      29.99S
OAK RIDGE      CLEAR     68  63  84 CALM      30.01S
GATLINBURG     CLEAR     66  61  82 CALM      29.99S
MORRISTOWN     CLEAR     66  63  88 CALM      30.01F
$$

TNZ083-085-099-020700-
SOUTHEAST TENNESSEE

CITY           SKY/WX    TMP DP  RH WIND       PRES   REMARKS
CHATTANOOGA    CLEAR     73  66  78 CALM      29.98R
$$

SKY/WX REPORTED AS FAIR MEANS FEW OR NO CLOUDS BELOW
12 THOUSAND FEET.



USA.gov is the U.S. government's official web portal to all federal, state and local government web resources and services.